Regional Weather Roundup
Issued by NWS Upton, NY

Current Version | Previous Version | Graphics & Text | Print | Product List | Glossary Off
Versions: 1 2 3 4 5 6 7 8 9 10 11 12 13 14 15 16 17 18 19 20 21 22 23 24 25 26 27 28 29 30 31 32 33 34 35 36 37 38 39 40 41 42 43 44 45 46 47 48 49 50

000
ASUS41 KOKX 061308
RWROKX

REGIONAL WEATHER ROUNDUP
NATIONAL WEATHER SERVICE NEW YORK NY
900 AM EDT WED MAY 06 2015

NOTE: "FAIR" INDICATES FEW OR NO CLOUDS BELOW 12,000 FEET WITH NO
SIGNIFICANT WEATHER AND/OR OBSTRUCTIONS TO VISIBILITY.

NYZ071-072-176-178-NJZ106-104-061400-
NEW YORK CITY METRO AREA


CITY           SKY/WX    TMP DP  RH WIND       PRES   REMARKS
CENTRAL PARK   CLOUDY    66  41  40 NE9       30.31R
LAGUARDIA APRT CLOUDY    61  48  62 NE8       30.29R
KENNEDY INTL   LGT RAIN  64  42  44 NE12      30.29R
NEWARK/LIBERTY LGT RAIN  67  42  40 NE10      30.29R
BRNX BOT. GARD   N/A     63  41  45 NE6       30.31R
TETERBORO      CLOUDY    65  42  43 NE7       30.28R
$$

NYZ177-179-078>081-061400-
LONG ISLAND NEW YORK

CITY           SKY/WX    TMP DP  RH WIND       PRES   REMARKS
FARMINGDALE    LGT RAIN  60  47  61 NE10      30.28S
ISLIP          CLOUDY    62  44  51 NE9       30.28R
SHIRLEY        CLOUDY    63  47  55 N6        30.29R
WESTHAMPTON    CLOUDY    61  47  59 NE12      30.29R
MONTAUK POINT    N/A     54  47  77 N3        30.30R
$$

NYZ052-065-067-061400-
HUDSON VALLEY

CITY           SKY/WX    TMP DP  RH WIND       PRES   REMARKS
WHITE PLAINS   CLOUDY    61  38  42 N9        30.29S
NEWBURGH       CLOUDY    59  48  67 NE7       30.33S
MONTGOMERY     CLOUDY    60  45  57 E5        30.32R
POUGHKEEPSIE   CLOUDY    57  51  80 CALM      30.31R
ALBANY         PTSUNNY   63  41  44 NE3       30.32S
$$

NJZ001-105-106-008-010-013-015-019>022-104-061400-
NEW JERSEY

CITY           SKY/WX    TMP DP  RH WIND       PRES   REMARKS
NEWARK/LIBERTY LGT RAIN  67  42  40 NE10      30.29R
TETERBORO      CLOUDY    65  42  43 NE7       30.28R
CALDWELL       CLOUDY    64  44  48 VRB5      30.30R
MORRISTOWN     CLOUDY    63  46  55 NE6       30.30R
SOMERVILLE     LGT RAIN  64  45  49 NE7       30.27R
SUSSEX         LGT RAIN  56  48  74 N5        30.33R
ANDOVER          N/A     58  49  72 VRB5      30.31R
TRENTON        PTSUNNY   67  42  40 NE13      30.26S
MILLVILLE      PTSUNNY   70  64  81 N6        30.24S
ATLANTIC CITY  PTSUNNY   69  56  62 NE8       30.24S
WRIGHTSTOWN    CLOUDY    67  45  44 NE10      30.25R
TOMS RIVER     CLOUDY    68  43  40 E12G17    30.27R
BELMAR         CLOUDY    66  41  39 NE13G18   30.28R
$$

PAZ047>061-062-071-061400-
EASTERN PENNSYLVANIA

CITY           SKY/WX    TMP DP  RH WIND       PRES   REMARKS
PHILADELPHIA   CLOUDY    71  44  37 NE13G20   30.26R
ALLENTOWN      CLOUDY    60  50  69 NE9       30.29R
SCRANTON       LGT RAIN  55  51  86 NE5       30.32R FOG
$$

CTZ002-004>006-009-010-012-RIZ004-006-007-MAZ004-011-015-061400-
SOUTHERN NEW ENGLAND
 IN CT

CITY           SKY/WX    TMP DP  RH WIND       PRES   REMARKS
BRADLEY INTL   CLOUDY    62  38  40 N6        30.30R
HARTFORD       CLOUDY    61  37  41 VRB7      30.30R
DANBURY        CLOUDY    56  48  74 CALM      30.33R
WTRBRY/OXFORD  CLOUDY    59  36  41 NE5       30.33R
BRIDGEPORT     LGT RAIN  62  41  46 N8        30.29R
MERIDEN        CLOUDY    63  36  36 N7        30.30R
NEW HAVEN      LGT RAIN  59  44  57 N8        30.29R
CHESTER        DRIZZLE   61  39  44 N5        30.30R
GROTON         CLOUDY    64  36  35 N5        30.28R
WILLIMANTIC    CLOUDY    64  33  31 NE7       30.29R

 IN RI

CITY           SKY/WX    TMP DP  RH WIND       PRES   REMARKS
PROVIDENCE     CLOUDY    63  40  42 NE8       30.30R
BLOCK ISLAND   CLOUDY    55  45  67 NE9       30.28R
WESTERLY       CLOUDY    63  38  39 N8        30.29R

 IN MA

CITY           SKY/WX    TMP DP  RH WIND       PRES   REMARKS
BOSTON         PTSUNNY   65  35  33 NE8       30.30S
WORCESTER      CLOUDY    60  30  32 NE8       30.31R
WESTFIELD      CLOUDY    58  43  57 N3        30.32R
PROVINCETOWN   PTSUNNY   54  46  76 NE6       30.30F
NANTUCKET      CLOUDY    60  49  66 NE13      30.28R
$$

ANZ330-335-338-340-345-350-353-355-061400-
COASTAL MARINE OBSERVATIONS


STATION/POSITION TIME  SKY/WX   TEMP    WIND        PRES    VSBY  WAVE
                                AIR SEA DIR/SP/G                  HT/PER
                 (UTC)          (F)     (DEG/KT/KT) (MB)    (MI)  (FT/S)
NY HARB ENTRANCE 1250            58 53   40/ 10/ 10 1024.4          3/ 6
4S FIRE IS       1203               51                N/A           3/ 7
20S FIRE ISLAND  1250            52 49   30/ 14/ 16 1024.4          3/ 6
GREAT SOUTH BAY  1215            62 61   50/  8/ 12   N/A
23SW MTP         1250            51 48   40/ 10/ 12 1024.9          3/ 7
HUDSON CANYON    NOT AVBL
KINGS POINT      1200            58 53   40/  5/  8 1024.7
EASTERN LI SOUND 1200            49      CALM  /  2   N/A
ROBBINS REEF     1200            65      40/ 16/ 19 1023.6
$$


>>>>>>>>>>>>>>>>>>>>>>>>>>>> KEY <<<<<<<<<<<<<<<<<<<<<<<<<<<
>                                                          <
>     SKY/WX - SKY CONDITION/PRESENT WEATHER               <
>     TMP    - TEMPERATURE IN FAHRENHEIT                   <
>     DP     - DEWPOINT IN FAHRENHEIT                      <
>     RH     - RELATIVE HUMIDITY IN PERCENT                <
>     WIND   - DIRECTION AND SPEED IN MPH                  <
>     PRES   - MEAN SEA LEVEL PRESSURE IN INCHES OF HG     <
>     WCI    - WIND CHILL INDEX                            <
>     VSB    - VISIBILITY IN MILES                         <
>     HX     - HEAT INDEX                                  <
>     TC     - TEMPERATURE IN CELSIUS                      <
>     VRB    - VARIABLE WIND DIRECTION                     <
>                                                          <
>>>>>>>>>>>>>>>>>>>>>>>>>>>> KEY <<<<<<<<<<<<<<<<<<<<<<<<<<<





USA.gov is the U.S. government's official web portal to all federal, state and local government web resources and services.